Погода в Чодраял

Россия / Республика Марий Эл     56°09′50″N   48°53′23″E
темп.,
°C
ветер,
м/с
пор.,
м/с
влажн.,
%
обл.,
%
осадки,
мм/ч
давл.,
гПа
погр.,
м
5 марта, пт
пт500:00−8з499591 0.0 997257
03:00−12зсз359888 0.1 99974
06:00−14сз229672 0.0 100020
09:00−10сз238865 0.0 1002145
12:00−6зсз24810 0.0 1003524
15:00−5з468537 0.1 1005813
18:00−8зюз379593 0.1 1006163
21:00−11зюз369789 0.1 1008125
6 марта, сб
сб600:00−12зюз339883 0.1 100866
03:00−12з229787 0.3 101140
06:00−13сз2496100 0.2 101190
09:00−12сз3588100 0.3 1013290
12:00−9зсз468253 0.0 1014841
15:00−9з468576 0.1 1013817
18:00−12зюз379599 0.1 1013236
21:00−13зюз379692 0.1 1013193
7 марта, вс
вс700:00−17з229870 0.0 101220
03:00−16з129874 0.1 101220
06:00−19зюз2210085 0.0 101120
09:00−15юз239283 0.1 1010178
12:00−11ююз358774 0.0 1008411
15:00−10ю478857 0.0 1006442
18:00−12ююв5119492 0.0 1004356
21:00−9ююв6139396 0.2 1002603
8 марта, пн
пн800:00−8ю61394100 1.0 997774
03:00−7ююв71394100 2.4 995801
06:00−9зюз5129299 0.7 995626
09:00−10юз5109299 0.8 996448
12:00−8юз61090100 0.4 997645
15:00−6ююз61089100 0.6 997813
18:00−7ю3995100 0.1 997306
21:00−8ююв2296100 0.7 99574
9 марта, вт
вт900:00−10сз2297100 0.1 99524
03:00−12зсз3497100 0.1 997111
06:00−12з489589 0.2 1001261
09:00−10зсз589193 0.3 1005419
12:00−9з468899 0.1 1007637
15:00−9зсз468899 0.2 1009743
18:00−12сз2495100 0.1 101079
21:00−14зсз2296100 0.2 101125